Location: Newark
(49.3389°N, 3.5728°E)
Time: 15:25:23
(UTC+00:00)

ISS - Visible Passes

Search period start: 05 December 2019 00:00
Search period end: 15 December 2019 00:00
Orbit: 412 x 421 km, 51.6° (Epoch: 05 December)

Date Brightness Start Highest point End Pass type
(mag) Time Alt. Az. Time Alt. Az. Time Alt. Az.
05 Dec -3.6 16:37:01 10° WNW 16:40:21 57° N 16:43:34 11° E visible
05 Dec -2.8 18:13:49 10° WNW 18:16:28 48° W 18:16:28 48° W visible
06 Dec -3.8 17:25:20 10° WNW 17:28:42 85° SSW 17:30:12 31° ESE visible
06 Dec -0.5 19:02:30 10° W 19:03:08 13° W 19:03:08 13° W visible
07 Dec -3.8 16:36:51 10° WNW 16:40:13 76° NNE 16:43:35 10° ESE visible
07 Dec -2.2 18:13:46 10° W 18:16:47 31° SW 18:16:59 31° SSW visible
08 Dec -2.8 17:25:10 10° WNW 17:28:24 45° SSW 17:31:01 14° SE visible
09 Dec -3.3 16:36:37 10° WNW 16:39:57 66° SSW 16:43:17 10° ESE visible
09 Dec -0.8 18:14:13 10° W 18:16:12 15° SW 18:18:11 10° S visible
10 Dec -1.3 17:25:13 10° W 17:27:53 22° SW 17:30:34 10° SSE visible
11 Dec -1.9 16:36:28 10° W 16:39:31 33° SSW 16:42:34 10° SSE visible
12 Dec 0.0 17:26:56 10° SW 17:27:09 10° SW 17:27:23 10° SW visible
13 Dec -0.6 16:36:45 10° W 16:38:51 16° SW 16:40:58 10° S visible
